Wind_Speed
61 63 65 67 68 70 72 74 76 76 75 75 77 77 78 79 79 80 81 81 82 82 82 82 81 82 83 84 86 87 89 90 90 91 91 90 90 88
64 66 67 69 70 72 74 75 78 80 79 78 78 78 78 77 76 76 76 76 76 76 76 76 75 75 75 75 76 77 79 81 83 85 86 87 87 87
66 68 69 71 72 74 75 77 78 80 80 77 77 76 75 73 71 71 70 70 69 69 69 68 67 67 66 66 67 67 69 71 73 75 77 79 80 82
68 69 71 72 73 75 76 77 78 78 78 76 72 71 70 69 68 66 65 64 63 62 62 61 60 60 60 60 61 61 62 63 65 66 67 70 73 74
69 70 72 73 74 75 76 76 75 75 74 72 69 67 65 64 63 61 60 59 58 57 57 56 56 56 56 56 56 57 57 58 58 59 60 61 64 66
70 72 73 75 75 75 75 74 73 72 70 69 66 63 61 60 59 58 57 55 54 54 53 53 52 52 52 52 52 52 52 53 53 54 55 56 58 60
72 73 74 75 75 75 74 72 70 68 67 65 63 60 58 56 55 54 53 52 51 51 50 50 49 48 48 48 48 49 49 49 49 50 51 52 53 56
73 74 75 75 74 73 71 69 68 66 64 62 59 56 54 52 51 50 50 49 47 46 46 45 46 45 45 45 45 45 45 45 46 46 46 48 49 51
75 75 75 73 72 70 67 66 64 62 60 58 55 52 50 49 48 47 46 44 42 41 42 41 41 41 42 42 42 42 41 41 42 42 43 44 45 47
76 75 73 71 69 67 65 62 59 57 56 54 52 49 48 47 46 44 43 41 39 38 39 37 37 38 38 38 39 39 38 38 39 39 39 40 42 44
74 73 71 69 66 64 62 59 55 53 51 50 49 47 45 44 43 42 40 38 36 35 36 35 34 35 35 35 36 36 35 35 36 37 37 38 39 41
72 70 68 66 63 60 58 55 52 50 48 47 46 44 43 41 40 39 38 36 35 34 34 34 33 33 32 32 33 32 32 32 33 34 35 36 37 39
70 66 64 62 59 57 55 53 50 48 46 44 42 41 40 38 37 36 36 35 34 32 32 32 31 31 30 30 31 30 30 29 29 30 31 32 34 36
67 64 61 58 55 53 51 49 48 46 44 41 39 37 36 36 35 34 34 33 32 31 31 30 30 29 29 28 28 29 29 28 28 29 30 30 31 33
65 61 58 54 51 49 48 46 45 43 41 39 37 35 35 34 33 33 32 32 31 30 30 29 28 28 27 26 27 27 28 28 28 28 28 29 30 31
61 57 54 51 49 47 45 43 42 40 38 36 34 34 33 32 32 31 31 31 30 29 29 28 28 27 26 26 25 26 27 27 28 27 27 28 29 30
57 53 50 48 46 44 43 41 40 39 37 35 34 33 32 31 31 31 30 29 28 28 28 28 27 26 25 25 24 25 26 27 27 28 27 27 27 29
54 50 48 45 43 41 40 39 38 37 36 35 34 33 31 31 30 30 29 28 28 27 27 27 26 26 25 24 25 25 26 27 27 27 27 27 27 28
51 48 46 43 41 39 38 36 36 35 34 34 33 32 31 31 30 30 30 29 28 27 27 27 26 26 25 25 25 25 26 26 27 27 27 28 28 29
48 46 43 41 39 38 36 35 34 34 33 33 32 32 31 31 30 30 30 29 29 28 28 27 27 27 26 26 25 26 26 27 27 28 29 29 29 30
44 42 41 39 38 36 35 34 33 33 32 32 31 31 31 31 30 30 30 30 29 29 28 28 28 28 28 27 26 27 27 28 28 29 29 30 30 31
41 39 38 37 36 34 33 33 32 32 31 31 31 31 30 30 30 30 30 30 30 29 29 29 29 29 29 28 28 28 28 28 28 29 29 30 30 30
38 37 36 35 34 33 33 32 32 31 31 31 31 31 30 30 30 30 30 30 30 30 29 29 30 30 30 29 29 29 28 28 29 29 29 29 30 30
Wind_Direction
294 294 294 294 294 293 293 292 291 290 289 289 288 287 285 284 283 281 280 279 278 276 275 274 272 271 269 267 266 264 262 261 259 258 257 255 254 253
296 296 296 296 295 295 294 294 294 293 292 291 290 288 287 286 284 282 281 280 279 278 276 275 273 272 270 268 267 265 263 261 260 258 256 255 253 252
297 297 297 297 297 296 296 296 295 294 293 292 291 290 289 287 285 284 283 281 280 279 277 276 274 272 270 269 267 265 264 262 261 259 257 254 253 251
299 299 299 298 298 298 297 297 296 295 294 293 292 290 289 288 286 284 283 282 281 279 278 276 274 272 270 269 267 266 265 263 262 260 258 255 252 249
301 300 300 300 300 299 299 298 297 296 295 294 293 291 289 288 286 284 283 282 281 279 278 276 274 272 271 269 268 267 265 264 262 259 257 254 251 248
302 302 302 302 301 300 299 298 297 296 295 294 293 291 289 287 286 284 283 282 280 279 277 275 273 272 271 269 268 266 265 264 262 259 257 254 250 247
303 303 303 303 302 301 300 298 297 296 295 294 292 291 289 287 285 284 282 281 280 278 277 275 273 272 270 269 268 267 265 263 261 259 257 253 250 246
304 304 304 303 302 301 300 299 298 296 295 294 292 291 289 287 285 284 283 281 279 277 276 274 273 271 270 269 268 267 265 263 261 259 256 253 250 246
305 305 304 303 302 300 299 298 297 296 295 294 293 291 289 287 286 284 283 282 280 277 275 274 272 270 269 268 267 267 266 263 260 257 255 252 249 245
306 305 304 303 301 300 298 297 296 295 294 293 292 291 289 288 286 285 282 281 279 277 276 274 271 270 268 268 267 266 265 263 260 256 254 251 248 245
306 305 304 302 301 299 298 297 295 294 293 292 292 290 289 288 286 284 282 280 278 277 276 274 271 269 268 268 267 266 265 262 259 256 253 250 246 243
306 304 303 301 300 298 297 296 295 293 292 291 290 289 288 286 285 283 281 280 279 277 275 273 271 269 268 266 266 266 264 262 259 255 252 249 246 243
306 304 302 300 299 297 296 295 294 293 292 290 288 287 286 285 283 282 281 281 280 278 274 273 272 270 268 264 264 264 263 262 259 255 252 249 246 243
305 303 301 300 298 297 295 295 294 293 292 291 288 286 285 284 282 281 281 281 280 278 275 273 272 271 268 264 261 261 261 260 259 256 253 250 247 244
304 303 301 299 297 296 295 294 293 292 291 290 288 286 285 283 281 281 281 280 280 279 276 274 272 270 268 265 261 259 258 258 258 256 253 250 248 245
303 301 300 298 296 294 294 293 292 291 290 289 287 286 285 283 281 280 279 279 279 278 276 274 272 269 267 265 261 258 256 256 255 255 253 251 248 246
301 300 298 296 294 293 293 292 291 290 289 288 286 285 284 283 282 281 279 278 277 276 276 275 272 269 266 263 260 257 255 255 254 254 253 251 249 247
301 300 298 296 294 292 291 290 290 289 288 287 286 284 283 282 281 280 278 277 276 275 274 273 271 269 267 263 260 258 256 254 254 253 251 250 249 248
299 299 298 296 294 292 290 288 288 288 287 286 285 283 282 281 280 279 277 276 274 273 273 271 269 268 266 263 261 260 257 255 254 253 252 250 249 249
298 298 297 295 294 292 289 287 287 287 286 286 285 284 282 280 279 278 276 274 273 272 272 269 268 267 265 263 262 260 258 257 255 254 253 252 250 249
297 296 295 294 293 291 288 286 286 286 285 284 284 284 282 280 278 277 275 274 273 272 271 268 267 266 265 264 262 260 259 258 257 256 255 254 252 250
296 295 294 294 293 291 288 287 286 286 284 283 284 284 283 281 279 277 275 273 272 271 269 267 265 265 265 263 261 260 259 259 258 257 256 254 252 249
295 294 293 292 292 290 289 288 286 285 283 283 284 284 283 282 280 277 275 273 272 271 269 266 265 264 264 263 262 260 260 259 259 258 256 254 251 249
Height
5653 5647 5641 5634 5628 5621 5614 5607 5601 5598 5597 5592 5583 5575 5567 5561 5555 5550 5545 5541 5538 5535 5533 5532 5530 5529 5529 5529 5530 5531 5533 5536 5540 5544 5549 5554 5560 5565
5637 5631 5624 5617 5609 5602 5594 5587 5579 5572 5570 5568 5558 5550 5542 5536 5530 5525 5521 5516 5513 5510 5507 5506 5504 5503 5503 5503 5503 5504 5506 5509 5512 5516 5521 5526 5532 5538
5620 5613 5606 5598 5590 5582 5574 5566 5558 5549 5544 5542 5533 5525 5518 5512 5507 5501 5497 5493 5490 5487 5484 5482 5481 5480 5480 5480 5480 5481 5483 5484 5487 5490 5494 5500 5505 5513
5603 5595 5587 5578 5571 5562 5553 5545 5536 5527 5520 5517 5512 5504 5497 5490 5485 5481 5476 5473 5469 5466 5464 5462 5461 5460 5459 5459 5460 5461 5462 5463 5465 5468 5472 5477 5482 5486
5584 5576 5568 5559 5551 5541 5532 5523 5515 5506 5498 5493 5490 5484 5477 5470 5465 5461 5457 5454 5451 5448 5445 5444 5442 5441 5441 5441 5441 5442 5443 5444 5446 5448 5450 5454 5459 5464
5566 5557 5548 5539 5530 5521 5512 5503 5494 5486 5479 5472 5468 5463 5458 5452 5446 5443 5440 5436 5433 5430 5428 5426 5425 5424 5424 5424 5424 5424 5425 5426 5428 5430 5432 5436 5440 5445
5547 5537 5528 5518 5508 5499 5490 5482 5474 5467 5460 5453 5449 5444 5440 5434 5429 5425 5422 5420 5417 5414 5412 5410 5409 5409 5408 5407 5407 5408 5409 5410 5411 5413 5415 5419 5423 5428
5528 5518 5508 5498 5488 5479 5470 5462 5454 5447 5440 5435 5430 5426 5422 5417 5412 5409 5406 5404 5402 5400 5396 5396 5394 5394 5392 5392 5392 5393 5393 5394 5396 5398 5400 5403 5407 5412
5507 5498 5488 5478 5468 5460 5452 5444 5436 5428 5422 5416 5412 5409 5405 5401 5397 5394 5390 5388 5387 5385 5383 5382 5380 5379 5378 5378 5378 5379 5379 5380 5382 5384 5386 5389 5393 5397
5487 5477 5467 5458 5448 5440 5434 5427 5420 5413 5406 5400 5396 5393 5389 5385 5382 5379 5376 5374 5374 5372 5369 5369 5368 5367 5366 5365 5365 5365 5366 5368 5369 5371 5374 5376 5380 5384
5467 5457 5446 5438 5430 5421 5415 5410 5405 5398 5392 5386 5382 5378 5374 5371 5367 5365 5363 5361 5361 5360 5357 5356 5356 5355 5355 5354 5353 5353 5354 5356 5357 5359 5362 5364 5368 5372
5449 5438 5428 5419 5412 5404 5397 5392 5388 5383 5378 5373 5369 5364 5361 5357 5354 5352 5350 5349 5348 5348 5346 5345 5344 5344 5344 5344 5343 5343 5344 5345 5346 5348 5350 5353 5356 5360
5430 5421 5411 5402 5394 5387 5381 5376 5371 5367 5364 5359 5356 5352 5348 5345 5343 5340 5338 5337 5336 5336 5335 5334 5333 5333 5333 5334 5333 5333 5334 5335 5336 5338 5340 5343 5346 5350
5410 5402 5394 5386 5379 5372 5366 5361 5357 5353 5349 5346 5343 5340 5337 5334 5332 5330 5328 5326 5325 5324 5324 5323 5323 5322 5322 5323 5323 5324 5324 5326 5327 5329 5331 5333 5336 5340
5390 5383 5376 5370 5363 5358 5352 5347 5343 5339 5336 5333 5330 5328 5325 5323 5321 5319 5318 5316 5315 5314 5313 5312 5312 5312 5312 5313 5314 5314 5315 5316 5318 5320 5322 5324 5327 5330
5373 5367 5360 5354 5348 5344 5339 5335 5330 5327 5324 5321 5319 5317 5314 5312 5310 5309 5308 5306 5305 5304 5303 5302 5302 5302 5303 5303 5304 5305 5306 5308 5309 5311 5313 5315 5318 5321
5358 5352 5346 5340 5335 5330 5326 5322 5318 5315 5312 5310 5308 5306 5304 5302 5300 5299 5297 5296 5295 5294 5293 5293 5292 5293 5293 5294 5295 5296 5297 5299 5300 5302 5304 5307 5309 5312
5341 5336 5331 5326 5322 5317 5314 5310 5307 5303 5301 5299 5297 5295 5293 5292 5290 5289 5288 5287 5286 5285 5284 5284 5283 5284 5285 5285 5287 5287 5288 5290 5291 5293 5296 5298 5301 5303
5326 5321 5316 5312 5308 5304 5301 5298 5296 5292 5290 5288 5286 5284 5283 5281 5280 5279 5278 5277 5277 5276 5275 5275 5274 5275 5276 5277 5278 5278 5280 5281 5283 5285 5287 5289 5292 5294
5311 5307 5303 5299 5295 5292 5289 5286 5284 5282 5279 5277 5275 5273 5272 5271 5270 5269 5268 5267 5267 5266 5266 5265 5265 5266 5267 5268 5269 5270 5270 5272 5274 5276 5278 5280 5282 5285
5297 5293 5289 5286 5283 5280 5277 5275 5273 5271 5269 5266 5265 5263 5261 5260 5259 5258 5258 5257 5257 5256 5256 5256 5255 5256 5257 5258 5260 5261 5261 5262 5264 5266 5268 5270 5272 5275
5284 5281 5277 5274 5271 5268 5266 5264 5262 5260 5258 5256 5254 5252 5251 5250 5249 5248 5247 5246 5246 5246 5246 5246 5246 5246 5247 5248 5249 5251 5252 5252 5254 5255 5257 5260 5261 5264
5271 5268 5265 5262 5259 5257 5254 5252 5250 5249 5247 5245 5243 5242 5240 5239 5238 5237 5236 5236 5235 5235 5235 5235 5236 5236 5237 5238 5239 5240 5242 5243 5244 5245 5247 5249 5251 5253